Regional Weather Roundup
Issued by NWS

Home | Current Version | Previous Version | Text Only | Print | Product List | Glossary Off
Versions: 1 2 3 4 5 6 7 8 9 10 11 12 13 14 15 16 17 18 19 20 21 22 23 24 25 26 27 28 29 30 31 32 33 34 35 36 37 38 39 40 41 42 43 44 45 46 47 48 49 50

000
ASUS43 KFSD 300610
RWRSD

WEATHER ROUNDUP FOR SOUTH DAKOTA
NATIONAL WEATHER SERVICE SIOUX FALLS SD
100 AM CDT SAT AUG 30 2014

NOTE: "FAIR" INDICATES FEW OR NO CLOUDS BELOW 12,000 FEET WITH NO
SIGNIFICANT WEATHER AND/OR OBSTRUCTIONS TO VISIBILITY.


SDZ001>005-009-010-012>017-300700-
NORTHWEST AND NORTH CENTRAL SOUTH DAKOTA

CITY           SKY/WX    TMP DP  RH WIND       PRES   REMARKS
BUFFALO          N/A     56  51  84 E6        29.95S
FAITH            N/A     55  53  93 E7        30.01R
MOBRIDGE       CLEAR     53  52  96 N5        29.96S
$$

SDZ012>016-024>037-041>051-057-063-072>074-300700-
SOUTHWEST AND SOUTH CENTRAL SOUTH DAKOTA

CITY           SKY/WX    TMP DP  RH WIND       PRES   REMARKS
RAPID CTY ARPT CLEAR     55  51  86 E3        30.04S
PIERRE         CLEAR     57  56  96 N6        29.96R
CUSTER         MOCLDY    50  48  93 CALM      30.14S
ELLSWORTH AFB  CLEAR     61  54  76 S3        30.04S
PHILIP         PTCLDY    57  54  89 N3        30.00S
PINE RIDGE     CLEAR     52  51  97 CALM      30.04S
WINNER         FAIR      60  56  86 NW7       29.96S
$$

SDZ004>011-016>023-039-040-300700-
NORTHEAST SOUTH DAKOTA

CITY           SKY/WX    TMP DP  RH WIND       PRES   REMARKS
ABERDEEN       CLOUDY    59  56  89 N15       29.91S
WATERTOWN      CLOUDY    63  61  93 N13       29.87S
SISSETON         N/A     62  59  90 N14       29.86S
$$

SDZ017-020-022-023-036>040-048>070-300700-
SOUTHEAST SOUTH DAKOTA

CITY           SKY/WX    TMP DP  RH WIND       PRES   REMARKS
SIOUX FALLS    FAIR      67  64  90 NW9       29.83F
HURON          MOCLDY    63  59  87 N12       29.90R
CHAMBERLAIN    CLEAR     61  58  89 N6        29.95R
MITCHELL       PTCLDY    63  61  93 NW9       29.89S
YANKTON        MOCLDY    66  63  88 NW10      29.86S
$$

ABBREVIATIONS USED IN REMARKS
   TC - TEMPERATURE IN CELSIUS
  WCI - WIND CHILL INDEX
   HX - HEAT INDEX
  VSB - VISIBILITY



USA.gov is the U.S. government's official web portal to all federal, state and local government web resources and services.